Home > Weather > Helsinki > Past weeks

Flag for Finland Past Weather in Helsinki, Finland — Yesterday and Last 2 Weeks

Now
59 °F

Fog.


Feels Like: 59 °F
Forecast: 62 / 71 °F
Wind: No wind

Location: Helsinki Malmi Airport

Current Time: Jul 27, 2016 at 4:20:44 AM

Latest Report: Jul 27, 2016 at 3:50 AM


Visibility: 2 mi

Pressure: 29.98 "Hg

Humidity: 100%

Dew Point: 59 °F

Location of HelsinkiLocation

Past Weather in Helsinki — Graph

°F

Helsinki Temperature Yesterday

Maximum temperature yesterday: 75 °F (at 3:50 PM)
Minimum temperature yesterday: 57 °F (at 3:50 AM)
Average temperature yesterday: 68 °F

High & Low Weather Summary for the Past Weeks

 TemperatureHumidityPressure
High75 °F (Jul 26, 3:50 PM)100% (Jul 12, 4:50 AM)30.12 "Hg (Jul 12, 4:50 AM)
Low50 °F (Jul 20, 1:50 AM)40% (Jul 19, 2:20 PM)29.47 "Hg (Jul 12, 3:20 AM)
Average64 °F79%29.89 "Hg
* Reported Jul 12 3:20 AM — Jul 27 3:20 AM, Helsinki, Weather by CustomWeather, © 2016

Note: Actual official high and low records may vary slightly from our data, if they occured in-between our weather recording intervals... More about our weather records

Advertising

Helsinki Weather History for the Previous 24 Hours

Scroll right to see more
 ConditionsComfort  
Time TempWeatherWind HumidityBarometerVisibility
3:20 AM
Wed, Jul 27
59 °FFog.No wind100%29.98 "Hg1 mi
2:50 AM63 °FClear.1 mph94%29.98 "Hg10 mi
2:20 AM61 °FClear.No wind100%29.98 "Hg10 mi
1:50 AM63 °FClear.No wind94%29.95 "Hg6 mi
1:20 AM63 °FClear.No wind100%29.95 "Hg10 mi
12:50 AM64 °FClear.2 mph94%29.95 "Hg10 mi
12:20 AM66 °FClear.2 mph88%29.95 "Hg10 mi
11:50 PM
Tue, Jul 26
66 °FClear.2 mph88%29.98 "Hg10 mi
11:20 PM66 °FClear.3 mph94%29.98 "Hg10 mi
10:50 PM68 °FSunny.2 mph88%29.98 "Hg10 mi
10:20 PM68 °FPassing clouds.6 mph88%29.98 "HgN/A
9:50 PM68 °FPassing clouds.6 mph88%29.98 "HgN/A
9:20 PM70 °FPassing clouds.6 mph78%29.98 "HgN/A
8:50 PM70 °FPassing clouds.7 mph78%29.98 "HgN/A
8:20 PM70 °FSunny.9 mph78%29.98 "Hg10 mi
7:50 PM72 °FSunny.9 mph69%29.95 "Hg10 mi
7:20 PM72 °FSunny.9 mph69%29.95 "Hg10 mi
6:50 PM73 °FSunny.9 mph61%29.95 "Hg10 mi
6:20 PM75 °FPassing clouds.7 mph57%29.95 "HgN/A
5:50 PM75 °FPassing clouds.7 mph54%29.98 "HgN/A
5:20 PM75 °FSunny.7 mph57%29.98 "Hg10 mi
4:50 PM73 °FSunny.8 mph61%29.98 "Hg10 mi
4:20 PM73 °FSunny.8 mph61%29.98 "Hg10 mi
3:50 PM75 °FPassing clouds.8 mph61%29.98 "HgN/A
3:20 PM73 °FPassing clouds.6 mph69%29.98 "HgN/A
2:50 PM73 °FPassing clouds.7 mph69%30.01 "HgN/A
2:20 PM73 °FPassing clouds.8 mph69%30.01 "HgN/A
1:50 PM73 °FPassing clouds.7 mph69%30.01 "HgN/A
1:20 PM73 °FPassing clouds.6 mph69%30.01 "HgN/A
12:50 PM73 °FPassing clouds.7 mph69%30.01 "HgN/A
12:20 PM73 °FPassing clouds.5 mph65%30.01 "HgN/A
11:50 AM73 °FPassing clouds.7 mph69%30.04 "HgN/A
11:20 AM72 °FPartly sunny.6 mph69%30.04 "HgN/A
10:50 AM72 °FPartly sunny.5 mph65%30.04 "HgN/A
10:20 AM70 °FPartly sunny.6 mph69%30.04 "HgN/A
9:50 AM70 °FScattered clouds.5 mph69%30.04 "HgN/A
9:20 AM70 °FSunny.3 mph69%30.04 "Hg10 mi
8:50 AM70 °FSunny.3 mph73%30.04 "Hg10 mi
8:20 AM68 °FSunny.2 mph73%30.04 "Hg10 mi
7:50 AM68 °FSunny.No wind83%30.04 "Hg10 mi
7:20 AM63 °FSunny.No wind94%30.04 "Hg10 mi
6:50 AM61 °FFog.No wind94%30.04 "Hg3 mi
6:20 AM59 °FSunny.No wind94%30.04 "Hg10 mi
5:50 AM57 °FSunny.1 mph100%30.04 "HgN/A
5:20 AM57 °FPassing clouds.No wind100%30.04 "Hg1 mi
4:50 AM57 °FDense fog.No wind94%30.04 "Hg1 mi
4:20 AM57 °FDense fog.No wind100%30.04 "Hg1 mi
Weather by CustomWeather, © 2016

See weather overviewHow to use our weather pages